Time,TemperatureF,DewpointF,PressureIn,WindDirection,WindDirectionDegrees,WindSpeedMPH,WindSpeedGustMPH,Humidity,HourlyPrecipIn,Conditions,Clouds,dailyrainin,SoftwareType,DateUTC
2013-10-08 00:00:00,47.6,46.5,29.99,South,175,0.0,0.0,96,0.00,,,0.88,Wunderground v.1.15,2013-10-08 04:00:00,
2013-10-08 00:01:00,47.6,46.5,30.00,South,175,0.0,0.0,96,0.00,,,0.88,Wunderground v.1.15,2013-10-08 04:01:00,
2013-10-08 00:02:00,47.6,46.5,30.00,South,175,0.0,0.0,96,0.00,,,0.00,Wunderground v.1.15,2013-10-08 04:02:00,
2013-10-08 00:03:00,47.6,46.5,30.00,South,175,0.0,0.0,96,0.00,,,0.00,Wunderground v.1.15,2013-10-08 04:03:00,
2013-10-08 00:05:00,47.6,46.5,30.00,South,175,0.0,0.0,96,0.00,,,0.00,Wunderground v.1.15,2013-10-08 04:05:00,
2013-10-08 00:06:00,47.6,46.5,30.00,South,175,0.0,0.0,96,0.00,,,0.00,Wunderground v.1.15,2013-10-08 04:06:00,
2013-10-08 00:12:00,47.6,46.5,30.00,South,175,0.0,0.0,96,0.00,,,0.00,Wunderground v.1.15,2013-10-08 04:12:00,
2013-10-08 00:16:00,47.6,46.5,29.99,South,175,0.0,0.0,96,0.00,,,0.00,Wunderground v.1.15,2013-10-08 04:16:00,
2013-10-08 00:21:00,47.4,46.3,29.99,South,175,0.0,0.0,96,0.00,,,0.00,Wunderground v.1.15,2013-10-08 04:21:00,
2013-10-08 00:27:00,47.3,46.2,29.99,South,175,0.0,0.0,96,0.00,,,0.00,Wunderground v.1.15,2013-10-08 04:27:00,
2013-10-08 00:32:00,47.3,46.2,30.00,South,175,0.0,1.0,96,0.00,,,0.00,Wunderground v.1.15,2013-10-08 04:32:00,
2013-10-08 00:38:00,47.3,46.2,30.00,South,175,0.0,1.0,96,0.00,,,0.00,Wunderground v.1.15,2013-10-08 04:38:00,
2013-10-08 00:43:00,47.4,46.6,30.00,South,175,0.0,1.0,97,0.00,,,0.00,Wunderground v.1.15,2013-10-08 04:43:00,
2013-10-08 00:49:00,47.7,46.9,29.99,South,175,0.0,1.0,97,0.00,,,0.00,Wunderground v.1.15,2013-10-08 04:49:00,
2013-10-08 00:55:00,47.7,46.9,29.99,South,175,0.0,1.0,97,0.00,,,0.00,Wunderground v.1.15,2013-10-08 04:55:00,
2013-10-08 01:00:00,47.9,47.1,30.00,South,175,0.0,1.0,97,0.00,,,0.00,Wunderground v.1.15,2013-10-08 05:00:00,
2013-10-08 01:06:00,47.9,47.1,30.00,South,175,0.0,0.0,97,0.00,,,0.00,Wunderground v.1.15,2013-10-08 05:06:00,
2013-10-08 01:12:00,47.7,46.9,30.00,South,175,0.0,0.0,97,0.00,,,0.00,Wunderground v.1.15,2013-10-08 05:12:00,
2013-10-08 01:18:00,47.9,47.1,30.00,South,175,0.0,0.0,97,0.00,,,0.00,Wunderground v.1.15,2013-10-08 05:18:00,
2013-10-08 01:23:00,47.9,47.1,30.00,South,175,0.0,0.0,97,0.00,,,0.00,Wunderground v.1.15,2013-10-08 05:23:00,
2013-10-08 01:29:00,47.7,46.9,30.00,South,175,0.0,0.0,97,0.00,,,0.00,Wunderground v.1.15,2013-10-08 05:29:00,
2013-10-08 01:34:00,47.7,46.9,30.00,South,175,0.0,0.0,97,0.00,,,0.00,Wunderground v.1.15,2013-10-08 05:34:00,
2013-10-08 01:40:00,47.4,46.6,30.00,South,175,0.0,0.0,97,0.00,,,0.00,Wunderground v.1.15,2013-10-08 05:40:00,
2013-10-08 01:46:00,47.4,46.6,30.00,South,175,0.0,0.0,97,0.00,,,0.00,Wunderground v.1.15,2013-10-08 05:46:00,
2013-10-08 01:52:00,47.4,46.6,30.00,South,175,0.0,0.0,97,0.00,,,0.00,Wunderground v.1.15,2013-10-08 05:52:00,
2013-10-08 01:57:00,47.3,46.5,30.00,South,175,0.0,0.0,97,0.00,,,0.00,Wunderground v.1.15,2013-10-08 05:57:00,
2013-10-08 02:03:00,47.3,46.5,30.00,South,175,0.0,0.0,97,0.00,,,0.00,Wunderground v.1.15,2013-10-08 06:03:00,
2013-10-08 02:09:00,47.3,46.5,30.00,South,175,0.0,0.0,97,0.00,,,0.00,Wunderground v.1.15,2013-10-08 06:09:00,
2013-10-08 02:15:00,47.1,46.3,30.00,South,175,0.0,0.0,97,0.00,,,0.00,Wunderground v.1.15,2013-10-08 06:15:00,
2013-10-08 02:21:00,47.1,46.3,30.00,South,175,0.0,0.0,97,0.00,,,0.00,Wunderground v.1.15,2013-10-08 06:21:00,
2013-10-08 02:27:00,47.1,46.3,30.00,South,175,0.0,0.0,97,0.00,,,0.00,Wunderground v.1.15,2013-10-08 06:27:00,
2013-10-08 02:33:00,47.0,46.2,30.00,South,175,0.0,0.0,97,0.00,,,0.00,Wunderground v.1.15,2013-10-08 06:33:00,
2013-10-08 02:39:00,46.8,46.0,30.00,South,175,0.0,1.0,97,0.00,,,0.00,Wunderground v.1.15,2013-10-08 06:39:00,
2013-10-08 02:44:00,46.8,46.3,30.00,South,175,0.0,0.0,98,0.00,,,0.00,Wunderground v.1.15,2013-10-08 06:44:00,
2013-10-08 02:50:00,47.0,46.5,30.00,South,175,0.0,0.0,98,0.00,,,0.00,Wunderground v.1.15,2013-10-08 06:50:00,
2013-10-08 02:56:00,47.0,46.5,30.00,South,175,0.0,0.0,98,0.00,,,0.00,Wunderground v.1.15,2013-10-08 06:56:00,
2013-10-08 03:02:00,46.8,46.3,30.01,South,175,0.0,1.0,98,0.00,,,0.00,Wunderground v.1.15,2013-10-08 07:02:00,
2013-10-08 03:08:00,46.8,46.3,30.01,South,175,0.0,1.0,98,0.00,,,0.00,Wunderground v.1.15,2013-10-08 07:08:00,
2013-10-08 03:14:00,46.8,46.3,30.01,South,175,0.0,1.0,98,0.00,,,0.00,Wunderground v.1.15,2013-10-08 07:14:00,
2013-10-08 03:20:00,46.8,46.3,30.00,South,175,0.0,1.0,98,0.00,,,0.00,Wunderground v.1.15,2013-10-08 07:20:00,
2013-10-08 03:26:00,47.0,46.5,30.00,South,175,0.0,1.0,98,0.00,,,0.00,Wunderground v.1.15,2013-10-08 07:26:00,
2013-10-08 03:31:00,46.8,46.3,30.00,South,175,0.0,1.0,98,0.00,,,0.00,Wunderground v.1.15,2013-10-08 07:31:00,
2013-10-08 03:37:00,46.5,46.0,30.00,South,176,0.0,1.0,98,0.00,,,0.00,Wunderground v.1.15,2013-10-08 07:37:00,
2013-10-08 03:43:00,46.2,45.7,30.00,SW,215,0.0,0.0,98,0.00,,,0.00,Wunderground v.1.15,2013-10-08 07:43:00,
2013-10-08 03:48:00,46.1,45.6,30.00,SW,215,0.0,1.0,98,0.00,,,0.00,Wunderground v.1.15,2013-10-08 07:48:00,
2013-10-08 03:54:00,46.1,45.6,30.00,SW,215,0.0,0.0,98,0.00,,,0.00,Wunderground v.1.15,2013-10-08 07:54:00,
2013-10-08 04:00:00,46.0,45.5,30.00,SW,215,0.0,0.0,98,0.00,,,0.00,Wunderground v.1.15,2013-10-08 08:00:00,
2013-10-08 04:06:00,45.8,45.3,30.00,SW,215,0.0,3.0,98,0.00,,,0.00,Wunderground v.1.15,2013-10-08 08:06:00,
2013-10-08 04:12:00,45.7,45.2,30.00,SW,215,0.0,3.0,98,0.00,,,0.00,Wunderground v.1.15,2013-10-08 08:12:00,
2013-10-08 04:18:00,45.7,45.2,30.00,SW,215,0.0,3.0,98,0.00,,,0.00,Wunderground v.1.15,2013-10-08 08:18:00,
2013-10-08 04:24:00,45.7,45.2,30.00,SW,215,0.0,3.0,98,0.00,,,0.00,Wunderground v.1.15,2013-10-08 08:24:00,
2013-10-08 04:30:00,45.5,45.0,30.00,SW,224,1.0,3.0,98,0.00,,,0.00,Wunderground v.1.15,2013-10-08 08:30:00,
2013-10-08 04:35:00,45.4,44.9,30.01,SW,224,1.0,3.0,98,0.00,,,0.00,Wunderground v.1.15,2013-10-08 08:35:00,
2013-10-08 04:40:00,45.2,44.7,30.01,SW,224,0.0,3.0,98,0.00,,,0.00,Wunderground v.1.15,2013-10-08 08:40:00,
2013-10-08 04:46:00,45.2,44.7,30.01,SW,224,0.0,3.0,98,0.00,,,0.00,Wunderground v.1.15,2013-10-08 08:46:00,
2013-10-08 04:51:00,45.2,44.7,30.01,SW,224,0.0,3.0,98,0.00,,,0.00,Wunderground v.1.15,2013-10-08 08:51:00,
2013-10-08 04:57:00,44.9,44.4,30.01,SW,224,0.0,3.0,98,0.00,,,0.00,Wunderground v.1.15,2013-10-08 08:57:00,
2013-10-08 05:02:00,44.9,44.4,30.02,SW,224,0.0,3.0,98,0.00,,,0.00,Wunderground v.1.15,2013-10-08 09:02:00,
2013-10-08 05:08:00,44.9,44.4,30.02,SW,224,0.0,2.0,98,0.00,,,0.00,Wunderground v.1.15,2013-10-08 09:08:00,
2013-10-08 05:14:00,44.6,44.1,30.02,SW,224,0.0,2.0,98,0.00,,,0.00,Wunderground v.1.15,2013-10-08 09:14:00,
2013-10-08 05:20:00,44.6,44.1,30.03,SW,224,0.0,2.0,98,0.00,,,0.00,Wunderground v.1.15,2013-10-08 09:20:00,
2013-10-08 05:25:00,44.8,44.5,30.03,SW,224,0.0,2.0,99,0.00,,,0.00,Wunderground v.1.15,2013-10-08 09:25:00,
2013-10-08 05:31:00,44.8,44.5,30.03,SW,224,0.0,2.0,99,0.00,,,0.00,Wunderground v.1.15,2013-10-08 09:31:00,
2013-10-08 05:37:00,44.9,44.6,30.03,SW,224,0.0,3.0,99,0.00,,,0.00,Wunderground v.1.15,2013-10-08 09:37:00,
2013-10-08 05:43:00,44.9,44.6,30.03,SW,224,0.0,3.0,99,0.00,,,0.00,Wunderground v.1.15,2013-10-08 09:43:00,
2013-10-08 05:49:00,44.8,44.5,30.03,SW,224,0.0,3.0,99,0.00,,,0.00,Wunderground v.1.15,2013-10-08 09:49:00,
2013-10-08 05:55:00,44.9,44.6,30.03,SW,224,0.0,3.0,99,0.00,,,0.00,Wunderground v.1.15,2013-10-08 09:55:00,
2013-10-08 06:01:00,44.6,44.3,30.04,SW,224,0.0,3.0,99,0.00,,,0.00,Wunderground v.1.15,2013-10-08 10:01:00,
2013-10-08 06:07:00,44.5,44.2,30.04,SW,224,0.0,1.0,99,0.00,,,0.00,Wunderground v.1.15,2013-10-08 10:07:00,
2013-10-08 06:12:00,44.3,44.0,30.04,SW,224,0.0,1.0,99,0.00,,,0.00,Wunderground v.1.15,2013-10-08 10:12:00,
2013-10-08 06:18:00,44.3,44.0,30.05,SW,224,0.0,1.0,99,0.00,,,0.00,Wunderground v.1.15,2013-10-08 10:18:00,
2013-10-08 06:23:00,44.3,44.0,30.05,SW,224,0.0,1.0,99,0.00,,,0.00,Wunderground v.1.15,2013-10-08 10:23:00,
2013-10-08 06:29:00,44.3,44.0,30.05,SW,224,0.0,1.0,99,0.00,,,0.00,Wunderground v.1.15,2013-10-08 10:29:00,
2013-10-08 06:35:00,44.3,44.0,30.05,SW,224,0.0,2.0,99,0.00,,,0.00,Wunderground v.1.15,2013-10-08 10:35:00,
2013-10-08 06:41:00,44.5,44.2,30.05,SW,224,0.0,2.0,99,0.00,,,0.00,Wunderground v.1.15,2013-10-08 10:41:00,
2013-10-08 06:47:00,44.5,44.2,30.06,SW,224,0.0,2.0,99,0.00,,,0.00,Wunderground v.1.15,2013-10-08 10:47:00,
2013-10-08 06:53:00,44.6,44.3,30.06,SW,224,0.0,2.0,99,0.00,,,0.00,Wunderground v.1.15,2013-10-08 10:53:00,
2013-10-08 06:58:00,44.8,44.5,30.06,SW,224,0.0,2.0,99,0.00,,,0.00,Wunderground v.1.15,2013-10-08 10:58:00,
2013-10-08 07:04:00,44.8,44.5,30.06,SW,224,0.0,2.0,99,0.00,,,0.00,Wunderground v.1.15,2013-10-08 11:04:00,
2013-10-08 07:09:00,44.6,44.3,30.06,SW,224,0.0,2.0,99,0.00,,,0.00,Wunderground v.1.15,2013-10-08 11:09:00,
2013-10-08 07:15:00,44.8,44.5,30.06,SW,224,0.0,2.0,99,0.00,,,0.00,Wunderground v.1.15,2013-10-08 11:15:00,
2013-10-08 07:21:00,44.6,44.3,30.07,SW,224,0.0,2.0,99,0.00,,,0.00,Wunderground v.1.15,2013-10-08 11:21:00,
2013-10-08 07:26:00,44.8,44.5,30.07,SW,224,0.0,2.0,99,0.00,,,0.00,Wunderground v.1.15,2013-10-08 11:26:00,
2013-10-08 07:32:00,45.1,44.8,30.07,SW,224,0.0,2.0,99,0.00,,,0.00,Wunderground v.1.15,2013-10-08 11:32:00,
2013-10-08 07:37:00,45.1,44.8,30.07,SW,224,0.0,2.0,99,0.00,,,0.00,Wunderground v.1.15,2013-10-08 11:37:00,
2013-10-08 07:43:00,45.1,44.8,30.07,SW,224,0.0,2.0,99,0.00,,,0.00,Wunderground v.1.15,2013-10-08 11:43:00,
2013-10-08 07:49:00,44.9,44.6,30.07,SW,224,0.0,2.0,99,0.00,,,0.00,Wunderground v.1.15,2013-10-08 11:49:00,
2013-10-08 07:55:00,44.8,44.5,30.07,SW,224,0.0,2.0,99,0.00,,,0.00,Wunderground v.1.15,2013-10-08 11:55:00,
2013-10-08 08:01:00,44.8,44.5,30.08,SW,222,0.0,2.0,99,0.00,,,0.00,Wunderground v.1.15,2013-10-08 12:01:00,
2013-10-08 08:07:00,44.9,44.6,30.08,SW,222,0.0,3.0,99,0.00,,,0.00,Wunderground v.1.15,2013-10-08 12:07:00,
2013-10-08 08:12:00,45.1,44.8,30.08,SW,222,0.0,3.0,99,0.00,,,0.00,Wunderground v.1.15,2013-10-08 12:12:00,
2013-10-08 08:18:00,45.2,44.9,30.09,SW,222,0.0,3.0,99,0.00,,,0.00,Wunderground v.1.15,2013-10-08 12:18:00,
2013-10-08 08:24:00,45.4,45.1,30.09,SW,222,0.0,3.0,99,0.00,,,0.00,Wunderground v.1.15,2013-10-08 12:24:00,
2013-10-08 08:30:00,45.7,45.4,30.09,SW,222,0.0,3.0,99,0.00,,,0.00,Wunderground v.1.15,2013-10-08 12:30:00,
2013-10-08 08:35:00,45.8,45.5,30.09,SW,222,0.0,0.0,99,0.00,,,0.00,Wunderground v.1.15,2013-10-08 12:35:00,
2013-10-08 08:41:00,45.8,45.5,30.09,SW,222,0.0,0.0,99,0.00,,,0.00,Wunderground v.1.15,2013-10-08 12:41:00,
2013-10-08 08:47:00,46.0,45.7,30.10,SW,222,0.0,0.0,99,0.00,,,0.00,Wunderground v.1.15,2013-10-08 12:47:00,
2013-10-08 08:53:00,46.0,45.7,30.10,SW,222,0.0,0.0,99,0.00,,,0.00,Wunderground v.1.15,2013-10-08 12:53:00,
2013-10-08 08:59:00,46.1,45.8,30.10,SW,222,0.0,0.0,99,0.00,,,0.00,Wunderground v.1.15,2013-10-08 12:59:00,
2013-10-08 09:05:00,46.2,45.9,30.11,SW,222,0.0,0.0,99,0.00,,,0.00,Wunderground v.1.15,2013-10-08 13:05:00,
2013-10-08 09:11:00,46.2,45.9,30.11,SW,222,0.0,0.0,99,0.00,,,0.00,Wunderground v.1.15,2013-10-08 13:11:00,
2013-10-08 09:16:00,46.4,46.1,30.11,SW,222,0.0,0.0,99,0.00,,,0.00,Wunderground v.1.15,2013-10-08 13:16:00,
2013-10-08 09:22:00,46.1,45.8,30.11,SW,222,0.0,3.0,99,0.00,,,0.00,Wunderground v.1.15,2013-10-08 13:22:00,
2013-10-08 09:27:00,46.2,45.9,30.11,SW,222,0.0,0.0,99,0.00,,,0.00,Wunderground v.1.15,2013-10-08 13:27:00,
2013-10-08 09:33:00,46.4,46.1,30.11,SW,222,0.0,3.0,99,0.00,,,0.00,Wunderground v.1.15,2013-10-08 13:33:00,
2013-10-08 09:39:00,46.7,46.4,30.11,SW,222,0.0,3.0,99,0.00,,,0.00,Wunderground v.1.15,2013-10-08 13:39:00,
2013-10-08 09:45:00,47.1,46.8,30.11,SW,222,0.0,3.0,99,0.00,,,0.00,Wunderground v.1.15,2013-10-08 13:45:00,
2013-10-08 09:50:00,47.4,47.1,30.12,SW,222,0.0,3.0,99,0.00,,,0.00,Wunderground v.1.15,2013-10-08 13:50:00,
2013-10-08 09:56:00,47.7,47.4,30.12,SW,222,0.0,3.0,99,0.00,,,0.00,Wunderground v.1.15,2013-10-08 13:56:00,
2013-10-08 10:02:00,48.0,47.7,30.12,SW,222,0.0,3.0,99,0.00,,,0.00,Wunderground v.1.15,2013-10-08 14:02:00,
2013-10-08 10:07:00,48.5,48.2,30.12,SW,222,0.0,1.0,99,0.00,,,0.00,Wunderground v.1.15,2013-10-08 14:07:00,
2013-10-08 10:13:00,49.1,48.8,30.12,SW,222,0.0,1.0,99,0.00,,,0.00,Wunderground v.1.15,2013-10-08 14:13:00,
2013-10-08 10:18:00,49.8,49.5,30.12,SSE,163,1.0,3.0,99,0.00,,,0.00,Wunderground v.1.15,2013-10-08 14:18:00,
2013-10-08 10:24:00,50.5,48.6,30.12,NE,49,1.0,2.0,93,0.00,,,0.00,Wunderground v.1.15,2013-10-08 14:24:00,
2013-10-08 10:30:00,52.3,45.6,30.12,ENE,59,2.0,5.0,78,0.00,,,0.01,Wunderground v.1.15,2013-10-08 14:30:00,
2013-10-08 10:36:00,53.5,44.3,30.12,NE,38,2.0,9.0,71,0.00,,,0.01,Wunderground v.1.15,2013-10-08 14:36:00,
2013-10-08 10:41:00,54.7,44.7,30.12,SSE,151,2.0,9.0,69,0.00,,,0.01,Wunderground v.1.15,2013-10-08 14:41:00,
2013-10-08 10:47:00,55.7,44.9,30.11,ENE,75,2.0,9.0,67,0.00,,,0.01,Wunderground v.1.15,2013-10-08 14:47:00,
2013-10-08 10:53:00,56.5,44.9,30.11,SSE,167,2.0,9.0,65,0.00,,,0.01,Wunderground v.1.15,2013-10-08 14:53:00,
2013-10-08 10:59:00,57.0,45.3,30.11,NE,54,2.0,9.0,65,0.00,,,0.01,Wunderground v.1.15,2013-10-08 14:59:00,
2013-10-08 11:05:00,57.3,45.2,30.12,WSW,242,2.0,14.0,64,0.00,,,0.01,Wunderground v.1.15,2013-10-08 15:05:00,
2013-10-08 11:11:00,57.8,45.7,30.12,SSE,157,2.0,14.0,64,0.00,,,0.01,Wunderground v.1.15,2013-10-08 15:11:00,
2013-10-08 11:17:00,58.3,44.5,30.11,NNE,31,2.0,14.0,60,0.00,,,0.01,Wunderground v.1.15,2013-10-08 15:17:00,
2013-10-08 11:22:00,58.4,45.4,30.11,SE,144,2.0,14.0,62,0.00,,,0.01,Wunderground v.1.15,2013-10-08 15:22:00,
2013-10-08 11:28:00,58.4,46.7,30.11,South,181,2.0,14.0,65,0.00,,,0.01,Wunderground v.1.15,2013-10-08 15:28:00,
2013-10-08 11:33:00,58.9,46.3,30.11,NE,42,1.0,10.0,63,0.00,,,0.01,Wunderground v.1.15,2013-10-08 15:33:00,
2013-10-08 11:39:00,58.6,46.9,30.11,SE,128,2.0,10.0,65,0.00,,,0.01,Wunderground v.1.15,2013-10-08 15:39:00,
2013-10-08 11:45:00,59.2,47.0,30.11,NE,50,3.0,10.0,64,0.00,,,0.01,Wunderground v.1.15,2013-10-08 15:45:00,
2013-10-08 11:51:00,59.2,46.6,30.12,NE,36,3.0,10.0,63,0.00,,,0.01,Wunderground v.1.15,2013-10-08 15:51:00,
2013-10-08 11:57:00,58.6,46.0,30.12,NE,53,4.0,10.0,63,0.00,,,0.01,Wunderground v.1.15,2013-10-08 15:57:00,
2013-10-08 12:02:00,59.0,47.2,30.11,North,350,3.0,12.0,65,0.00,,,0.01,Wunderground v.1.15,2013-10-08 16:02:00,
2013-10-08 12:08:00,59.9,46.8,30.11,NE,45,3.0,12.0,62,0.00,,,0.01,Wunderground v.1.15,2013-10-08 16:08:00,
2013-10-08 12:13:00,59.6,46.1,30.11,NE,41,3.0,12.0,61,0.00,,,0.01,Wunderground v.1.15,2013-10-08 16:13:00,
2013-10-08 12:19:00,60.1,45.3,30.11,SSE,160,3.0,12.0,58,0.00,,,0.01,Wunderground v.1.15,2013-10-08 16:19:00,
2013-10-08 12:25:00,60.2,46.3,30.11,ENE,74,3.0,12.0,60,0.00,,,0.01,Wunderground v.1.15,2013-10-08 16:25:00,
2013-10-08 12:30:00,60.7,45.8,30.11,NE,54,3.0,12.0,58,0.00,,,0.01,Wunderground v.1.15,2013-10-08 16:30:00,
2013-10-08 12:36:00,61.2,45.8,30.11,SE,142,2.0,15.0,57,0.00,,,0.01,Wunderground v.1.15,2013-10-08 16:36:00,
2013-10-08 12:41:00,61.0,45.2,30.11,SE,138,2.0,15.0,56,0.00,,,0.01,Wunderground v.1.15,2013-10-08 16:41:00,
2013-10-08 12:47:00,61.2,44.9,30.11,SSE,164,3.0,15.0,55,0.00,,,0.01,Wunderground v.1.15,2013-10-08 16:47:00,
2013-10-08 12:52:00,61.5,45.7,30.11,South,183,3.0,15.0,56,0.00,,,0.01,Wunderground v.1.15,2013-10-08 16:52:00,
2013-10-08 12:58:00,62.1,46.2,30.11,NW,306,2.0,15.0,56,0.00,,,0.01,Wunderground v.1.15,2013-10-08 16:58:00,
2013-10-08 13:03:00,62.1,44.8,30.10,NE,40,3.0,3.0,53,0.00,,,0.01,Wunderground v.1.15,2013-10-08 17:03:00,
2013-10-08 13:09:00,61.5,44.2,30.10,SE,138,3.0,12.0,53,0.00,,,0.01,Wunderground v.1.15,2013-10-08 17:09:00,
2013-10-08 13:15:00,61.6,46.2,30.10,North,355,3.0,12.0,57,0.00,,,0.01,Wunderground v.1.15,2013-10-08 17:15:00,
2013-10-08 13:21:00,62.0,45.6,30.09,South,169,3.0,12.0,55,0.00,,,0.01,Wunderground v.1.15,2013-10-08 17:21:00,
2013-10-08 13:26:00,62.1,45.2,30.09,NE,55,3.0,12.0,54,0.00,,,0.01,Wunderground v.1.15,2013-10-08 17:26:00,
2013-10-08 13:32:00,62.0,45.2,30.09,NE,43,3.0,12.0,54,0.00,,,0.01,Wunderground v.1.15,2013-10-08 17:32:00,
2013-10-08 13:37:00,62.0,45.2,30.09,NE,49,3.0,10.0,54,0.00,,,0.01,Wunderground v.1.15,2013-10-08 17:37:00,
2013-10-08 13:43:00,62.6,47.1,30.09,ENE,63,2.0,10.0,57,0.00,,,0.01,Wunderground v.1.15,2013-10-08 17:43:00,
2013-10-08 13:49:00,63.2,46.3,30.08,NW,312,2.0,10.0,54,0.00,,,0.01,Wunderground v.1.15,2013-10-08 17:49:00,
2013-10-08 13:55:00,62.7,47.2,30.08,NE,51,3.0,10.0,57,0.00,,,0.01,Wunderground v.1.15,2013-10-08 17:55:00,
2013-10-08 14:01:00,62.9,46.0,30.07,NE,55,3.0,11.0,54,0.00,,,0.01,Wunderground v.1.15,2013-10-08 18:01:00,
2013-10-08 14:07:00,62.3,46.9,30.07,NE,51,3.0,14.0,57,0.00,,,0.01,Wunderground v.1.15,2013-10-08 18:07:00,
2013-10-08 14:12:00,62.6,45.7,30.07,NE,40,3.0,14.0,54,0.00,,,0.01,Wunderground v.1.15,2013-10-08 18:12:00,
2013-10-08 14:18:00,62.4,45.5,30.07,NE,40,3.0,14.0,54,0.00,,,0.01,Wunderground v.1.15,2013-10-08 18:18:00,
2013-10-08 14:24:00,63.1,45.2,30.07,SW,215,3.0,14.0,52,0.00,,,0.01,Wunderground v.1.15,2013-10-08 18:24:00,
2013-10-08 14:30:00,63.2,44.8,30.07,NE,44,2.0,14.0,51,0.00,,,0.01,Wunderground v.1.15,2013-10-08 18:30:00,
2013-10-08 14:36:00,63.2,46.3,30.07,NE,49,2.0,11.0,54,0.00,,,0.01,Wunderground v.1.15,2013-10-08 18:36:00,
2013-10-08 14:42:00,63.9,47.4,30.07,NE,46,1.0,11.0,55,0.00,,,0.01,Wunderground v.1.15,2013-10-08 18:42:00,
2013-10-08 14:48:00,63.2,45.3,30.06,NE,44,3.0,11.0,52,0.00,,,0.01,Wunderground v.1.15,2013-10-08 18:48:00,
2013-10-08 14:53:00,63.2,47.2,30.06,SSE,162,3.0,3.0,56,0.00,,,0.01,Wunderground v.1.15,2013-10-08 18:53:00,
2013-10-08 14:59:00,64.2,45.7,30.06,NNE,27,2.0,11.0,51,0.00,,,0.01,Wunderground v.1.15,2013-10-08 18:59:00,
2013-10-08 15:04:00,63.9,44.9,30.06,NE,36,2.0,12.0,50,0.00,,,0.01,Wunderground v.1.15,2013-10-08 19:04:00,
2013-10-08 15:10:00,63.7,44.7,30.06,NE,51,3.0,12.0,50,0.00,,,0.01,Wunderground v.1.15,2013-10-08 19:10:00,
2013-10-08 15:16:00,63.4,45.5,30.06,NE,53,3.0,12.0,52,0.00,,,0.01,Wunderground v.1.15,2013-10-08 19:16:00,
2013-10-08 15:22:00,63.7,48.6,30.06,East,82,3.0,12.0,58,0.00,,,0.01,Wunderground v.1.15,2013-10-08 19:22:00,
2013-10-08 15:27:00,64.2,47.2,30.06,NE,41,2.0,12.0,54,0.00,,,0.01,Wunderground v.1.15,2013-10-08 19:27:00,
2013-10-08 15:33:00,64.3,47.3,30.06,NE,46,2.0,12.0,54,0.00,,,0.01,Wunderground v.1.15,2013-10-08 19:33:00,
2013-10-08 15:39:00,64.2,46.2,30.06,NNE,31,3.0,12.0,52,0.00,,,0.01,Wunderground v.1.15,2013-10-08 19:39:00,
2013-10-08 15:44:00,64.3,46.3,30.06,NE,45,2.0,12.0,52,0.00,,,0.01,Wunderground v.1.15,2013-10-08 19:44:00,
2013-10-08 15:50:00,64.2,45.7,30.07,NE,47,2.0,12.0,51,0.00,,,0.01,Wunderground v.1.15,2013-10-08 19:50:00,
2013-10-08 15:55:00,64.2,45.2,30.07,ENE,66,2.0,12.0,50,0.00,,,0.01,Wunderground v.1.15,2013-10-08 19:55:00,
2013-10-08 16:01:00,64.5,46.0,30.07,SE,137,2.0,12.0,51,0.00,,,0.01,Wunderground v.1.15,2013-10-08 20:01:00,
2013-10-08 16:06:00,64.2,45.2,30.07,North,5,3.0,11.0,50,0.00,,,0.01,Wunderground v.1.15,2013-10-08 20:06:00,
2013-10-08 16:12:00,63.7,45.2,30.07,NE,52,4.0,11.0,51,0.00,,,0.01,Wunderground v.1.15,2013-10-08 20:12:00,
2013-10-08 16:17:00,63.7,46.2,30.07,SE,136,3.0,11.0,53,0.00,,,0.01,Wunderground v.1.15,2013-10-08 20:17:00,
2013-10-08 16:22:00,63.9,44.4,30.07,NE,44,2.0,11.0,49,0.00,,,0.01,Wunderground v.1.15,2013-10-08 20:22:00,
2013-10-08 16:28:00,63.9,43.3,30.07,NE,39,3.0,11.0,47,0.00,,,0.01,Wunderground v.1.15,2013-10-08 20:28:00,
2013-10-08 16:33:00,63.7,45.2,30.07,NE,40,2.0,11.0,51,0.00,,,0.01,Wunderground v.1.15,2013-10-08 20:33:00,
2013-10-08 16:39:00,63.9,45.4,30.07,NE,44,2.0,11.0,51,0.00,,,0.01,Wunderground v.1.15,2013-10-08 20:39:00,
2013-10-08 16:44:00,64.2,46.2,30.07,NE,53,2.0,11.0,52,0.00,,,0.01,Wunderground v.1.15,2013-10-08 20:44:00,
2013-10-08 16:50:00,64.2,46.2,30.07,NNW,348,2.0,11.0,52,0.00,,,0.01,Wunderground v.1.15,2013-10-08 20:50:00,
2013-10-08 16:55:00,64.5,48.0,30.07,South,183,2.0,11.0,55,0.00,,,0.01,Wunderground v.1.15,2013-10-08 20:55:00,
2013-10-08 17:01:00,64.2,46.7,30.07,NE,54,2.0,11.0,53,0.00,,,0.01,Wunderground v.1.15,2013-10-08 21:01:00,
2013-10-08 17:07:00,63.9,47.9,30.07,North,355,3.0,14.0,56,0.00,,,0.01,Wunderground v.1.15,2013-10-08 21:07:00,
2013-10-08 17:12:00,64.0,46.5,30.07,NE,52,1.0,14.0,53,0.00,,,0.01,Wunderground v.1.15,2013-10-08 21:12:00,
2013-10-08 17:18:00,63.7,46.7,30.08,NE,51,2.0,14.0,54,0.00,,,0.01,Wunderground v.1.15,2013-10-08 21:18:00,
2013-10-08 17:24:00,63.5,47.5,30.08,NNE,28,2.0,14.0,56,0.00,,,0.01,Wunderground v.1.15,2013-10-08 21:24:00,
2013-10-08 17:29:00,63.2,47.2,30.08,South,172,2.0,14.0,56,0.00,,,0.01,Wunderground v.1.15,2013-10-08 21:29:00,
2013-10-08 17:35:00,63.2,48.2,30.08,NE,34,2.0,12.0,58,0.00,,,0.01,Wunderground v.1.15,2013-10-08 21:35:00,
2013-10-08 17:40:00,63.5,48.0,30.08,SSE,166,1.0,12.0,57,0.00,,,0.01,Wunderground v.1.15,2013-10-08 21:40:00,
2013-10-08 17:46:00,63.9,48.4,30.08,NE,51,0.0,12.0,57,0.00,,,0.01,Wunderground v.1.15,2013-10-08 21:46:00,
2013-10-08 17:52:00,63.9,48.8,30.08,ENE,57,1.0,12.0,58,0.00,,,0.01,Wunderground v.1.15,2013-10-08 21:52:00,
2013-10-08 17:58:00,63.4,48.4,30.08,NE,40,1.0,12.0,58,0.00,,,0.01,Wunderground v.1.15,2013-10-08 21:58:00,
2013-10-08 18:03:00,62.7,49.1,30.08,NE,49,2.0,2.0,61,0.00,,,0.01,Wunderground v.1.15,2013-10-08 22:03:00,
2013-10-08 18:09:00,62.3,49.5,30.08,SSE,160,1.0,9.0,63,0.00,,,0.01,Wunderground v.1.15,2013-10-08 22:09:00,
2013-10-08 18:14:00,62.0,49.3,30.08,SE,142,0.0,9.0,63,0.00,,,0.01,Wunderground v.1.15,2013-10-08 22:14:00,
2013-10-08 18:20:00,61.6,48.9,30.08,NE,40,1.0,9.0,63,0.00,,,0.01,Wunderground v.1.15,2013-10-08 22:20:00,
2013-10-08 18:25:00,61.5,49.2,30.08,NE,56,1.0,9.0,64,0.00,,,0.01,Wunderground v.1.15,2013-10-08 22:25:00,
2013-10-08 18:31:00,61.2,48.9,30.09,ENE,59,1.0,9.0,64,0.00,,,0.01,Wunderground v.1.15,2013-10-08 22:31:00,
2013-10-08 18:37:00,60.7,48.4,30.09,NE,47,1.0,6.0,64,0.00,,,0.01,Wunderground v.1.15,2013-10-08 22:37:00,
2013-10-08 18:43:00,60.4,48.2,30.09,NE,40,1.0,6.0,64,0.00,,,0.01,Wunderground v.1.15,2013-10-08 22:43:00,
2013-10-08 18:48:00,60.2,48.0,30.10,NE,46,1.0,6.0,64,0.00,,,0.01,Wunderground v.1.15,2013-10-08 22:48:00,
2013-10-08 18:54:00,59.9,47.7,30.10,NE,43,1.0,6.0,64,0.00,,,0.01,Wunderground v.1.15,2013-10-08 22:54:00,
2013-10-08 19:00:00,59.6,47.4,30.10,NE,38,1.0,6.0,64,0.00,,,0.01,Wunderground v.1.15,2013-10-08 23:00:00,
2013-10-08 19:06:00,59.5,48.1,30.10,NE,51,0.0,9.0,66,0.00,,,0.01,Wunderground v.1.15,2013-10-08 23:06:00,
2013-10-08 19:12:00,59.3,47.5,30.10,NE,49,0.0,9.0,65,0.00,,,0.01,Wunderground v.1.15,2013-10-08 23:12:00,
2013-10-08 19:18:00,59.2,48.2,30.10,ENE,61,0.0,9.0,67,0.00,,,0.01,Wunderground v.1.15,2013-10-08 23:18:00,
2013-10-08 19:24:00,59.0,48.1,30.10,ENE,61,0.0,9.0,67,0.00,,,0.01,Wunderground v.1.15,2013-10-08 23:24:00,
2013-10-08 19:29:00,58.9,48.0,30.10,SE,138,0.0,9.0,67,0.00,,,0.01,Wunderground v.1.15,2013-10-08 23:29:00,
2013-10-08 19:35:00,58.7,48.6,30.10,SE,131,0.0,4.0,69,0.00,,,0.01,Wunderground v.1.15,2013-10-08 23:35:00,
2013-10-08 19:41:00,58.6,48.1,30.10,ENE,57,0.0,4.0,68,0.00,,,0.01,Wunderground v.1.15,2013-10-08 23:41:00,
2013-10-08 19:47:00,58.4,48.3,30.10,ENE,57,0.0,4.0,69,0.00,,,0.01,Wunderground v.1.15,2013-10-08 23:47:00,
2013-10-08 19:54:00,58.3,48.6,30.10,ENE,76,0.0,4.0,70,0.00,,,0.01,Wunderground v.1.15,2013-10-08 23:54:00,
2013-10-08 19:59:00,58.1,48.4,30.10,East,88,0.0,4.0,70,0.00,,,0.01,Wunderground v.1.15,2013-10-08 23:59:00,
2013-10-08 20:05:00,57.8,48.1,30.10,East,88,0.0,3.0,70,0.00,,,0.01,Wunderground v.1.15,2013-10-09 00:05:00,
2013-10-08 20:11:00,57.6,48.6,30.10,East,94,0.0,3.0,72,0.00,,,0.01,Wunderground v.1.15,2013-10-09 00:11:00,
2013-10-08 20:16:00,57.5,48.9,30.10,East,95,0.0,3.0,73,0.00,,,0.01,Wunderground v.1.15,2013-10-09 00:16:00,
2013-10-08 20:22:00,57.3,48.7,30.10,ESE,109,0.0,3.0,73,0.00,,,0.01,Wunderground v.1.15,2013-10-09 00:22:00,
2013-10-08 20:27:00,57.2,48.6,30.10,East,80,0.0,3.0,73,0.00,,,0.01,Wunderground v.1.15,2013-10-09 00:27:00,
2013-10-08 20:33:00,57.0,48.4,30.11,ENE,65,0.0,4.0,73,0.00,,,0.01,Wunderground v.1.15,2013-10-09 00:33:00,
2013-10-08 20:38:00,56.7,48.1,30.11,NE,49,1.0,4.0,73,0.00,,,0.01,Wunderground v.1.15,2013-10-09 00:38:00,
2013-10-08 20:44:00,56.6,48.4,30.11,SSE,161,1.0,4.0,74,0.00,,,0.01,Wunderground v.1.15,2013-10-09 00:44:00,
2013-10-08 20:49:00,56.5,48.3,30.12,NE,51,1.0,5.0,74,0.00,,,0.01,Wunderground v.1.15,2013-10-09 00:49:00,
2013-10-08 20:55:00,56.3,48.1,30.12,NE,52,0.0,4.0,74,0.00,,,0.01,Wunderground v.1.15,2013-10-09 00:55:00,
2013-10-08 21:00:00,56.0,48.2,30.12,NE,40,0.0,4.0,75,0.00,,,0.01,Wunderground v.1.15,2013-10-09 01:00:00,
2013-10-08 21:06:00,55.9,48.4,30.12,ENE,64,0.0,6.0,76,0.00,,,0.01,Wunderground v.1.15,2013-10-09 01:06:00,
2013-10-08 21:12:00,55.6,48.2,30.12,SSE,166,0.0,6.0,76,0.00,,,0.01,Wunderground v.1.15,2013-10-09 01:12:00,
2013-10-08 21:18:00,55.4,48.0,30.13,SSE,161,1.0,6.0,76,0.00,,,0.01,Wunderground v.1.15,2013-10-09 01:18:00,
2013-10-08 21:23:00,55.1,48.0,30.13,NE,42,0.0,6.0,77,0.00,,,0.01,Wunderground v.1.15,2013-10-09 01:23:00,
2013-10-08 21:29:00,55.0,47.6,30.13,ESE,121,0.0,6.0,76,0.00,,,0.01,Wunderground v.1.15,2013-10-09 01:29:00,
2013-10-08 21:34:00,54.8,47.7,30.13,ESE,122,0.0,4.0,77,0.00,,,0.01,Wunderground v.1.15,2013-10-09 01:34:00,
2013-10-08 21:40:00,54.7,47.6,30.13,NE,41,0.0,4.0,77,0.00,,,0.01,Wunderground v.1.15,2013-10-09 01:40:00,
2013-10-08 21:46:00,54.5,47.4,30.14,SSW,200,0.0,4.0,77,0.00,,,0.01,Wunderground v.1.15,2013-10-09 01:46:00,
2013-10-08 21:52:00,54.5,47.1,30.14,NE,38,0.0,4.0,76,0.00,,,0.01,Wunderground v.1.15,2013-10-09 01:52:00,
2013-10-08 21:57:00,54.5,47.4,30.14,West,271,0.0,4.0,77,0.00,,,0.01,Wunderground v.1.15,2013-10-09 01:57:00,
2013-10-08 22:03:00,54.4,48.0,30.15,West,271,0.0,4.0,79,0.00,,,0.01,Wunderground v.1.15,2013-10-09 02:03:00,
2013-10-08 22:08:00,54.2,47.5,30.15,SSE,166,0.0,4.0,78,0.00,,,0.01,Wunderground v.1.15,2013-10-09 02:08:00,
2013-10-08 22:14:00,54.2,47.5,30.15,SSE,166,0.0,4.0,78,0.00,,,0.01,Wunderground v.1.15,2013-10-09 02:14:00,
2013-10-08 22:20:00,54.2,47.5,30.15,NE,51,0.0,4.0,78,0.00,,,0.01,Wunderground v.1.15,2013-10-09 02:20:00,
2013-10-08 22:25:00,54.1,47.7,30.15,East,82,0.0,4.0,79,0.00,,,0.01,Wunderground v.1.15,2013-10-09 02:25:00,
2013-10-08 22:31:00,53.6,47.9,30.15,SE,124,0.0,4.0,81,0.00,,,0.01,Wunderground v.1.15,2013-10-09 02:31:00,
2013-10-08 22:36:00,53.5,47.8,30.15,SE,124,0.0,4.0,81,0.00,,,0.01,Wunderground v.1.15,2013-10-09 02:36:00,
2013-10-08 22:41:00,53.3,47.6,30.15,SE,140,1.0,4.0,81,0.00,,,0.01,Wunderground v.1.15,2013-10-09 02:41:00,
2013-10-08 22:47:00,53.3,47.6,30.15,SE,140,1.0,4.0,81,0.00,,,0.01,Wunderground v.1.15,2013-10-09 02:47:00,
2013-10-08 22:53:00,53.3,47.3,30.15,South,179,1.0,4.0,80,0.00,,,0.01,Wunderground v.1.15,2013-10-09 02:53:00,
2013-10-08 22:58:00,53.2,47.2,30.15,SSE,165,0.0,4.0,80,0.00,,,0.01,Wunderground v.1.15,2013-10-09 02:58:00,
2013-10-08 23:04:00,53.1,46.8,30.15,SSE,165,0.0,5.0,79,0.00,,,0.01,Wunderground v.1.15,2013-10-09 03:04:00,
2013-10-08 23:09:00,53.1,47.1,30.15,SSE,163,1.0,5.0,80,0.00,,,0.01,Wunderground v.1.15,2013-10-09 03:09:00,
2013-10-08 23:15:00,52.9,46.9,30.15,SSE,163,1.0,5.0,80,0.00,,,0.01,Wunderground v.1.15,2013-10-09 03:15:00,
2013-10-08 23:20:00,52.8,46.5,30.15,SSE,161,0.0,5.0,79,0.00,,,0.01,Wunderground v.1.15,2013-10-09 03:20:00,
2013-10-08 23:26:00,52.8,46.5,30.15,SSE,161,0.0,5.0,79,0.00,,,0.01,Wunderground v.1.15,2013-10-09 03:26:00,
2013-10-08 23:31:00,52.8,46.1,30.15,SSE,153,0.0,5.0,78,0.00,,,0.01,Wunderground v.1.15,2013-10-09 03:31:00,
2013-10-08 23:36:00,52.8,45.8,30.15,SSE,167,0.0,4.0,77,0.00,,,0.01,Wunderground v.1.15,2013-10-09 03:36:00,
2013-10-08 23:42:00,52.8,46.5,30.15,SSE,167,0.0,4.0,79,0.00,,,0.01,Wunderground v.1.15,2013-10-09 03:42:00,
2013-10-08 23:47:00,52.6,46.3,30.15,SSE,167,0.0,4.0,79,0.00,,,0.01,Wunderground v.1.15,2013-10-09 03:47:00,
2013-10-08 23:53:00,52.3,45.6,30.15,SSE,167,0.0,4.0,78,0.00,,,0.01,Wunderground v.1.15,2013-10-09 03:53:00,
2013-10-08 23:59:00,52.2,45.5,30.15,SSE,167,0.0,4.0,78,0.00,,,0.01,Wunderground v.1.15,2013-10-09 03:59:00,